Time,TemperatureF,DewpointF,PressureIn,WindDirection,WindDirectionDegrees,WindSpeedMPH,WindSpeedGustMPH,Humidity,HourlyPrecipIn,Conditions,Clouds,dailyrainin,SolarRadiationWatts/m^2,SoftwareType,DateUTC
2013-04-28 00:01:00,48.1,37.3,29.98,North,32767,0.0,0.0,66,0.00,,,0.00,0,Wunderground v.1.15,2013-04-28 04:01:00,
2013-04-28 00:03:00,48.0,37.6,29.98,North,32767,0.0,0.0,67,0.00,,,0.00,0,Wunderground v.1.15,2013-04-28 04:03:00,
2013-04-28 00:04:00,47.9,37.5,29.98,North,32767,0.0,0.0,67,0.00,,,0.00,0,Wunderground v.1.15,2013-04-28 04:04:00,
2013-04-28 00:05:00,47.8,37.4,29.98,North,32767,0.0,0.0,67,0.00,,,0.00,0,Wunderground v.1.15,2013-04-28 04:05:00,
2013-04-28 00:11:00,47.4,37.0,29.98,North,32767,0.0,0.0,67,0.00,,,0.00,0,Wunderground v.1.15,2013-04-28 04:11:00,
2013-04-28 00:14:00,47.1,37.1,29.98,North,32767,0.0,0.0,68,0.00,,,0.00,0,Wunderground v.1.15,2013-04-28 04:14:00,
2013-04-28 00:20:00,46.8,37.9,29.98,North,32767,0.0,0.0,71,0.00,,,0.00,0,Wunderground v.1.15,2013-04-28 04:20:00,
2013-04-28 00:26:00,46.5,38.3,29.98,North,32767,0.0,0.0,73,0.00,,,0.00,0,Wunderground v.1.15,2013-04-28 04:26:00,
2013-04-28 00:32:00,46.5,38.7,29.98,North,32767,0.0,0.0,74,0.00,,,0.00,0,Wunderground v.1.15,2013-04-28 04:32:00,
2013-04-28 00:37:00,46.6,38.1,29.98,North,32767,0.0,0.0,72,0.00,,,0.00,0,Wunderground v.1.15,2013-04-28 04:37:00,
2013-04-28 00:43:00,46.8,37.9,29.97,North,32767,0.0,0.0,71,0.00,,,0.00,0,Wunderground v.1.15,2013-04-28 04:43:00,
2013-04-28 00:48:00,47.0,37.7,29.97,North,32767,0.0,0.0,70,0.00,,,0.00,0,Wunderground v.1.15,2013-04-28 04:48:00,
2013-04-28 00:54:00,47.2,37.2,29.97,North,32767,0.0,0.0,68,0.00,,,0.00,0,Wunderground v.1.15,2013-04-28 04:54:00,
2013-04-28 01:00:00,47.5,37.5,29.97,North,32767,0.0,0.0,68,0.00,,,0.00,0,Wunderground v.1.15,2013-04-28 05:00:00,
2013-04-28 01:06:00,47.9,36.3,29.97,North,32767,0.0,0.0,64,0.00,,,0.00,0,Wunderground v.1.15,2013-04-28 05:06:00,
2013-04-28 01:12:00,48.3,36.3,29.96,North,32767,0.0,0.0,63,0.00,,,0.00,0,Wunderground v.1.15,2013-04-28 05:12:00,
2013-04-28 01:18:00,48.6,37.0,29.96,North,32767,0.0,0.0,64,0.00,,,0.00,0,Wunderground v.1.15,2013-04-28 05:18:00,
2013-04-28 01:24:00,48.9,35.6,29.96,North,32767,0.0,0.0,60,0.00,,,0.00,0,Wunderground v.1.15,2013-04-28 05:24:00,
2013-04-28 01:29:00,49.2,36.7,29.96,North,32767,0.0,0.0,62,0.00,,,0.00,0,Wunderground v.1.15,2013-04-28 05:29:00,
2013-04-28 01:35:00,49.4,36.1,29.96,North,32767,0.0,0.0,60,0.00,,,0.00,0,Wunderground v.1.15,2013-04-28 05:35:00,
2013-04-28 01:41:00,49.6,35.8,29.96,North,32767,0.0,0.0,59,0.00,,,0.00,0,Wunderground v.1.15,2013-04-28 05:41:00,
2013-04-28 01:47:00,49.8,36.0,29.96,North,32767,0.0,0.0,59,0.00,,,0.00,0,Wunderground v.1.15,2013-04-28 05:47:00,
2013-04-28 01:52:00,50.1,35.0,29.96,North,32767,0.0,0.0,56,0.00,,,0.00,0,Wunderground v.1.15,2013-04-28 05:52:00,
2013-04-28 01:58:00,50.4,35.7,29.96,North,32767,0.0,0.0,57,0.00,,,0.00,0,Wunderground v.1.15,2013-04-28 05:58:00,
2013-04-28 02:03:00,50.6,34.6,29.95,North,32767,0.0,0.0,54,0.00,,,0.00,0,Wunderground v.1.15,2013-04-28 06:03:00,
2013-04-28 02:08:00,50.8,34.7,29.95,North,32767,0.0,0.0,54,0.00,,,0.00,0,Wunderground v.1.15,2013-04-28 06:08:00,
2013-04-28 02:13:00,50.9,35.3,29.95,North,32767,0.0,0.0,55,0.00,,,0.00,0,Wunderground v.1.15,2013-04-28 06:13:00,
2013-04-28 02:18:00,51.0,34.5,29.95,North,32767,0.0,0.0,53,0.00,,,0.00,0,Wunderground v.1.15,2013-04-28 06:18:00,
2013-04-28 02:23:00,51.0,34.0,29.94,North,32767,0.0,0.0,52,0.00,,,0.00,0,Wunderground v.1.15,2013-04-28 06:23:00,
2013-04-28 02:28:00,51.1,34.1,29.94,North,32767,0.0,0.0,52,0.00,,,0.00,0,Wunderground v.1.15,2013-04-28 06:28:00,
2013-04-28 02:33:00,51.2,34.6,29.94,North,32767,0.0,0.0,53,0.00,,,0.00,0,Wunderground v.1.15,2013-04-28 06:33:00,
2013-04-28 02:38:00,51.3,34.3,29.93,North,32767,0.0,0.0,52,0.00,,,0.00,0,Wunderground v.1.15,2013-04-28 06:38:00,
2013-04-28 02:43:00,51.2,34.6,29.92,North,32767,0.0,0.0,53,0.00,,,0.00,0,Wunderground v.1.15,2013-04-28 06:43:00,
2013-04-28 02:48:00,51.3,34.3,29.92,North,32767,0.0,0.0,52,0.00,,,0.00,0,Wunderground v.1.15,2013-04-28 06:48:00,
2013-04-28 02:53:00,51.2,34.2,29.92,North,32767,0.0,0.0,52,0.00,,,0.00,0,Wunderground v.1.15,2013-04-28 06:53:00,
2013-04-28 02:58:00,51.2,35.6,29.92,North,32767,0.0,0.0,55,0.00,,,0.00,0,Wunderground v.1.15,2013-04-28 06:58:00,
2013-04-28 03:03:00,51.1,35.0,29.91,North,32767,0.0,0.0,54,0.00,,,0.00,0,Wunderground v.1.15,2013-04-28 07:03:00,
2013-04-28 03:08:00,51.0,34.9,29.90,North,32767,0.0,0.0,54,0.00,,,0.00,0,Wunderground v.1.15,2013-04-28 07:08:00,
2013-04-28 03:13:00,50.9,34.8,29.90,North,32767,0.0,0.0,54,0.00,,,0.00,0,Wunderground v.1.15,2013-04-28 07:13:00,
2013-04-28 03:18:00,50.9,34.8,29.90,North,32767,0.0,0.0,54,0.00,,,0.00,0,Wunderground v.1.15,2013-04-28 07:18:00,
2013-04-28 03:23:00,50.9,34.8,29.90,North,32767,0.0,0.0,54,0.00,,,0.00,0,Wunderground v.1.15,2013-04-28 07:23:00,
2013-04-28 03:28:00,51.0,34.9,29.90,North,32767,0.0,0.0,54,0.00,,,0.00,0,Wunderground v.1.15,2013-04-28 07:28:00,
2013-04-28 03:33:00,51.0,34.9,29.90,North,32767,0.0,0.0,54,0.00,,,0.00,0,Wunderground v.1.15,2013-04-28 07:33:00,
2013-04-28 03:38:00,51.0,34.5,29.90,North,32767,0.0,0.0,53,0.00,,,0.00,0,Wunderground v.1.15,2013-04-28 07:38:00,
2013-04-28 03:43:00,51.0,35.4,29.90,North,32767,0.0,0.0,55,0.00,,,0.00,0,Wunderground v.1.15,2013-04-28 07:43:00,
2013-04-28 03:48:00,51.0,34.9,29.89,North,32767,0.0,0.0,54,0.00,,,0.00,0,Wunderground v.1.15,2013-04-28 07:48:00,
2013-04-28 03:53:00,51.0,34.9,29.89,North,32767,0.0,0.0,54,0.00,,,0.00,0,Wunderground v.1.15,2013-04-28 07:53:00,
2013-04-28 03:58:00,51.0,34.9,29.89,North,32767,0.0,0.0,54,0.00,,,0.00,0,Wunderground v.1.15,2013-04-28 07:58:00,
2013-04-28 04:03:00,50.9,35.7,29.89,North,32767,0.0,0.0,56,0.00,,,0.00,0,Wunderground v.1.15,2013-04-28 08:03:00,
2013-04-28 04:08:00,50.8,35.7,29.89,North,32767,0.0,0.0,56,0.00,,,0.00,0,Wunderground v.1.15,2013-04-28 08:08:00,
2013-04-28 04:13:00,50.8,35.7,29.89,North,32767,0.0,0.0,56,0.00,,,0.00,0,Wunderground v.1.15,2013-04-28 08:13:00,
2013-04-28 04:18:00,50.8,35.7,29.89,North,32767,0.0,0.0,56,0.00,,,0.00,0,Wunderground v.1.15,2013-04-28 08:18:00,
2013-04-28 04:23:00,50.7,36.0,29.89,North,32767,0.0,0.0,57,0.00,,,0.00,0,Wunderground v.1.15,2013-04-28 08:23:00,
2013-04-28 04:28:00,50.7,35.6,29.89,North,32767,0.0,0.0,56,0.00,,,0.00,0,Wunderground v.1.15,2013-04-28 08:28:00,
2013-04-28 04:33:00,50.7,37.3,29.89,North,32767,0.0,0.0,60,0.00,,,0.00,0,Wunderground v.1.15,2013-04-28 08:33:00,
2013-04-28 04:38:00,50.6,35.9,29.89,North,32767,0.0,0.0,57,0.00,,,0.00,0,Wunderground v.1.15,2013-04-28 08:38:00,
2013-04-28 04:43:00,50.6,36.4,29.89,North,32767,0.0,0.0,58,0.00,,,0.00,0,Wunderground v.1.15,2013-04-28 08:43:00,
2013-04-28 04:48:00,50.5,35.8,29.89,North,32767,0.0,0.0,57,0.00,,,0.00,0,Wunderground v.1.15,2013-04-28 08:48:00,
2013-04-28 04:53:00,50.5,36.3,29.88,North,32767,0.0,0.0,58,0.00,,,0.00,0,Wunderground v.1.15,2013-04-28 08:53:00,
2013-04-28 04:58:00,50.5,35.8,29.88,North,32767,0.0,0.0,57,0.00,,,0.00,0,Wunderground v.1.15,2013-04-28 08:58:00,
2013-04-28 05:03:00,50.4,36.2,29.88,North,32767,0.0,0.0,58,0.00,,,0.00,0,Wunderground v.1.15,2013-04-28 09:03:00,
2013-04-28 05:08:00,50.4,36.2,29.88,North,32767,0.0,0.0,58,0.00,,,0.00,0,Wunderground v.1.15,2013-04-28 09:08:00,
2013-04-28 05:13:00,50.5,36.7,29.88,North,32767,0.0,0.0,59,0.00,,,0.00,0,Wunderground v.1.15,2013-04-28 09:13:00,
2013-04-28 05:18:00,50.5,36.3,29.88,North,32767,0.0,0.0,58,0.00,,,0.00,0,Wunderground v.1.15,2013-04-28 09:18:00,
2013-04-28 05:23:00,50.4,36.2,29.88,North,32767,0.0,0.0,58,0.00,,,0.00,0,Wunderground v.1.15,2013-04-28 09:23:00,
2013-04-28 05:28:00,50.4,36.6,29.88,North,32767,0.0,0.0,59,0.00,,,0.00,0,Wunderground v.1.15,2013-04-28 09:28:00,
2013-04-28 05:33:00,50.4,36.6,29.88,North,32767,0.0,0.0,59,0.00,,,0.00,0,Wunderground v.1.15,2013-04-28 09:33:00,
2013-04-28 05:38:00,50.3,36.9,29.88,North,32767,0.0,0.0,60,0.00,,,0.00,0,Wunderground v.1.15,2013-04-28 09:38:00,
2013-04-28 05:43:00,50.2,36.8,29.88,North,32767,0.0,0.0,60,0.00,,,0.00,0,Wunderground v.1.15,2013-04-28 09:43:00,
2013-04-28 05:48:00,50.2,36.4,29.88,North,32767,0.0,0.0,59,0.00,,,0.00,0,Wunderground v.1.15,2013-04-28 09:48:00,
2013-04-28 05:53:00,50.1,36.7,29.88,North,32767,0.0,0.0,60,0.00,,,0.00,0,Wunderground v.1.15,2013-04-28 09:53:00,
2013-04-28 05:58:00,50.1,36.7,29.88,North,32767,0.0,0.0,60,0.00,,,0.00,0,Wunderground v.1.15,2013-04-28 09:58:00,
2013-04-28 06:03:00,50.1,37.2,29.88,North,32767,0.0,0.0,61,0.00,,,0.00,0,Wunderground v.1.15,2013-04-28 10:03:00,
2013-04-28 06:08:00,50.0,37.5,29.87,North,32767,0.0,0.0,62,0.00,,,0.00,0,Wunderground v.1.15,2013-04-28 10:08:00,
2013-04-28 06:13:00,50.0,37.9,29.87,North,32767,0.0,0.0,63,0.00,,,0.00,0,Wunderground v.1.15,2013-04-28 10:13:00,
2013-04-28 06:18:00,50.0,37.5,29.87,North,32767,0.0,0.0,62,0.00,,,0.00,0,Wunderground v.1.15,2013-04-28 10:18:00,
2013-04-28 06:23:00,49.9,38.2,29.87,North,32767,0.0,0.0,64,0.00,,,0.00,0,Wunderground v.1.15,2013-04-28 10:23:00,
2013-04-28 06:28:00,49.8,38.1,29.86,North,32767,0.0,0.0,64,0.00,,,0.00,0,Wunderground v.1.15,2013-04-28 10:28:00,
2013-04-28 06:33:00,49.7,38.0,29.86,North,32767,0.0,0.0,64,0.00,,,0.00,0,Wunderground v.1.15,2013-04-28 10:33:00,
2013-04-28 06:38:00,49.6,38.3,29.86,North,32767,0.0,0.0,65,0.00,,,0.00,0,Wunderground v.1.15,2013-04-28 10:38:00,
2013-04-28 06:43:00,49.6,37.5,29.86,North,32767,0.0,0.0,63,0.00,,,0.00,0,Wunderground v.1.15,2013-04-28 10:43:00,
2013-04-28 06:49:00,49.5,37.8,29.86,North,32767,0.0,0.0,64,0.00,,,0.00,0,Wunderground v.1.15,2013-04-28 10:49:00,
2013-04-28 06:54:00,49.5,37.8,29.86,North,32767,0.0,0.0,64,0.00,,,0.00,0,Wunderground v.1.15,2013-04-28 10:54:00,
2013-04-28 06:59:00,49.5,37.8,29.86,North,32767,0.0,0.0,64,0.00,,,0.00,0,Wunderground v.1.15,2013-04-28 10:59:00,
2013-04-28 07:04:00,49.4,37.7,29.86,North,32767,0.0,0.0,64,0.00,,,0.00,0,Wunderground v.1.15,2013-04-28 11:04:00,
2013-04-28 07:09:00,49.5,38.2,29.86,North,32767,0.0,0.0,65,0.00,,,0.00,0,Wunderground v.1.15,2013-04-28 11:09:00,
2013-04-28 07:14:00,49.5,38.6,29.86,North,32767,0.0,0.0,66,0.00,,,0.00,5,Wunderground v.1.15,2013-04-28 11:14:00,
2013-04-28 07:19:00,49.4,39.7,29.86,North,32767,0.0,0.0,69,0.00,,,0.00,5,Wunderground v.1.15,2013-04-28 11:19:00,
2013-04-28 07:24:00,49.4,39.7,29.86,North,32767,0.0,0.0,69,0.00,,,0.00,5,Wunderground v.1.15,2013-04-28 11:24:00,
2013-04-28 07:29:00,49.3,39.2,29.85,North,32767,0.0,0.0,68,0.00,,,0.00,9,Wunderground v.1.15,2013-04-28 11:29:00,
2013-04-28 07:34:00,49.2,39.5,29.85,North,32767,0.0,0.0,69,0.00,,,0.00,14,Wunderground v.1.15,2013-04-28 11:34:00,
2013-04-28 07:39:00,49.2,39.5,29.85,North,32767,0.0,0.0,69,0.00,,,0.00,21,Wunderground v.1.15,2013-04-28 11:39:00,
2013-04-28 07:44:00,49.2,39.1,29.85,North,32767,0.0,0.0,68,0.00,,,0.00,26,Wunderground v.1.15,2013-04-28 11:44:00,
2013-04-28 07:49:00,49.2,39.5,29.86,North,32767,0.0,0.0,69,0.00,,,0.00,33,Wunderground v.1.15,2013-04-28 11:49:00,
2013-04-28 07:54:00,49.3,39.2,29.85,North,32767,0.0,0.0,68,0.00,,,0.00,44,Wunderground v.1.15,2013-04-28 11:54:00,
2013-04-28 07:59:00,49.4,40.0,29.86,North,32767,0.0,0.0,70,0.00,,,0.00,53,Wunderground v.1.15,2013-04-28 11:59:00,
2013-04-28 08:04:00,49.5,39.7,29.86,North,32767,0.0,0.0,69,0.00,,,0.00,60,Wunderground v.1.15,2013-04-28 12:04:00,
2013-04-28 08:09:00,49.6,40.6,29.86,North,32767,0.0,0.0,71,0.00,,,0.00,70,Wunderground v.1.15,2013-04-28 12:09:00,
2013-04-28 08:14:00,49.7,40.3,29.86,North,32767,0.0,0.0,70,0.00,,,0.00,84,Wunderground v.1.15,2013-04-28 12:14:00,
2013-04-28 08:19:00,49.9,40.1,29.86,North,32767,0.0,0.0,69,0.00,,,0.00,97,Wunderground v.1.15,2013-04-28 12:19:00,
2013-04-28 08:24:00,50.1,41.1,29.86,North,32767,0.0,0.0,71,0.00,,,0.00,102,Wunderground v.1.15,2013-04-28 12:24:00,
2013-04-28 08:29:00,50.4,41.0,29.85,North,32767,0.0,0.0,70,0.00,,,0.00,113,Wunderground v.1.15,2013-04-28 12:29:00,
2013-04-28 08:34:00,50.6,41.9,29.85,North,32767,0.0,0.0,72,0.00,,,0.00,120,Wunderground v.1.15,2013-04-28 12:34:00,
2013-04-28 08:39:00,50.8,41.7,29.85,North,32767,0.0,0.0,71,0.00,,,0.00,109,Wunderground v.1.15,2013-04-28 12:39:00,
2013-04-28 08:44:00,50.9,41.8,29.85,North,32767,0.0,0.0,71,0.00,,,0.00,81,Wunderground v.1.15,2013-04-28 12:44:00,
2013-04-28 08:49:00,51.1,41.7,29.85,North,32767,0.0,0.0,70,0.00,,,0.00,65,Wunderground v.1.15,2013-04-28 12:49:00,
2013-04-28 08:54:00,51.2,42.1,29.85,North,32767,0.0,0.0,71,0.00,,,0.00,63,Wunderground v.1.15,2013-04-28 12:54:00,
2013-04-28 08:59:00,51.3,41.8,29.85,North,32767,0.0,0.0,70,0.00,,,0.00,63,Wunderground v.1.15,2013-04-28 12:59:00,
2013-04-28 09:04:00,51.4,42.7,29.85,North,32767,0.0,0.0,72,0.00,,,0.00,76,Wunderground v.1.15,2013-04-28 13:04:00,
2013-04-28 09:09:00,51.5,43.1,29.85,North,32767,0.0,0.0,73,0.00,,,0.00,90,Wunderground v.1.15,2013-04-28 13:09:00,
2013-04-28 09:14:00,51.7,43.0,29.84,North,32767,0.0,0.0,72,0.00,,,0.00,95,Wunderground v.1.15,2013-04-28 13:14:00,
2013-04-28 09:19:00,51.8,43.4,29.84,North,32767,0.0,0.0,73,0.00,,,0.00,91,Wunderground v.1.15,2013-04-28 13:19:00,
2013-04-28 09:24:00,52.0,44.0,29.84,North,32767,0.0,0.0,74,0.00,,,0.00,83,Wunderground v.1.15,2013-04-28 13:24:00,
2013-04-28 09:29:00,52.2,44.2,29.84,North,32767,0.0,0.0,74,0.00,,,0.00,72,Wunderground v.1.15,2013-04-28 13:29:00,
2013-04-28 09:34:00,52.3,44.6,29.84,North,32767,0.0,0.0,75,0.00,,,0.00,65,Wunderground v.1.15,2013-04-28 13:34:00,
2013-04-28 09:39:00,52.4,45.7,29.84,North,32767,0.0,0.0,78,0.00,,,0.00,65,Wunderground v.1.15,2013-04-28 13:39:00,
2013-04-28 09:44:00,52.4,46.4,29.84,North,32767,0.0,0.0,80,0.00,,,0.00,79,Wunderground v.1.15,2013-04-28 13:44:00,
2013-04-28 09:49:00,52.4,46.7,29.84,North,32767,0.0,0.0,81,0.00,,,0.00,97,Wunderground v.1.15,2013-04-28 13:49:00,
2013-04-28 09:54:00,52.4,47.1,29.84,North,32767,0.0,0.0,82,0.00,,,0.00,105,Wunderground v.1.15,2013-04-28 13:54:00,
2013-04-28 09:59:00,52.4,47.1,29.84,North,32767,0.0,0.0,82,0.00,,,0.00,111,Wunderground v.1.15,2013-04-28 13:59:00,
2013-04-28 10:04:00,52.4,47.4,29.83,North,32767,0.0,0.0,83,0.00,,,0.01,70,Wunderground v.1.15,2013-04-28 14:04:00,
2013-04-28 10:09:00,52.3,48.2,29.83,North,32767,0.0,0.0,86,0.00,,,0.01,69,Wunderground v.1.15,2013-04-28 14:09:00,
2013-04-28 10:14:00,52.2,48.1,29.84,North,32767,0.0,0.0,86,0.06,,,0.02,67,Wunderground v.1.15,2013-04-28 14:14:00,
2013-04-28 10:19:00,52.0,48.6,29.83,North,32767,0.0,0.0,88,0.06,,,0.02,56,Wunderground v.1.15,2013-04-28 14:19:00,
2013-04-28 10:24:00,51.8,48.4,29.83,North,32767,0.0,0.0,88,0.05,,,0.03,47,Wunderground v.1.15,2013-04-28 14:24:00,
2013-04-28 10:29:00,51.5,48.4,29.83,North,32767,0.0,0.0,89,0.10,,,0.04,47,Wunderground v.1.15,2013-04-28 14:29:00,
2013-04-28 10:34:00,51.4,48.6,29.82,North,32767,0.0,0.0,90,0.09,,,0.04,44,Wunderground v.1.15,2013-04-28 14:34:00,
2013-04-28 10:39:00,51.3,48.8,29.82,North,32767,0.0,0.0,91,0.06,,,0.05,51,Wunderground v.1.15,2013-04-28 14:39:00,
2013-04-28 10:44:00,51.3,48.8,29.82,North,32767,0.0,0.0,91,0.09,,,0.06,47,Wunderground v.1.15,2013-04-28 14:44:00,
2013-04-28 10:49:00,51.2,49.0,29.82,North,32767,0.0,0.0,92,0.09,,,0.06,67,Wunderground v.1.15,2013-04-28 14:49:00,
2013-04-28 10:54:00,51.2,49.0,29.82,North,32767,0.0,0.0,92,0.06,,,0.06,60,Wunderground v.1.15,2013-04-28 14:54:00,
2013-04-28 10:59:00,51.2,49.2,29.82,North,32767,0.0,0.0,93,0.05,,,0.07,77,Wunderground v.1.15,2013-04-28 14:59:00,
2013-04-28 11:04:00,51.2,49.2,29.82,North,32767,0.0,0.0,93,0.05,,,0.07,51,Wunderground v.1.15,2013-04-28 15:04:00,
2013-04-28 11:09:00,51.3,49.3,29.81,North,32767,0.0,0.0,93,0.07,,,0.08,51,Wunderground v.1.15,2013-04-28 15:09:00,
2013-04-28 11:14:00,51.3,49.3,29.82,North,32767,0.0,0.0,93,0.06,,,0.08,60,Wunderground v.1.15,2013-04-28 15:14:00,
2013-04-28 11:19:00,51.3,49.6,29.82,North,32767,0.0,0.0,94,0.05,,,0.09,46,Wunderground v.1.15,2013-04-28 15:19:00,
2013-04-28 11:24:00,51.3,49.6,29.81,North,32767,0.0,0.0,94,0.05,,,0.09,49,Wunderground v.1.15,2013-04-28 15:24:00,
2013-04-28 11:29:00,51.3,49.6,29.81,North,32767,0.0,0.0,94,0.05,,,0.09,49,Wunderground v.1.15,2013-04-28 15:29:00,
2013-04-28 11:34:00,51.3,49.6,29.81,North,32767,0.0,0.0,94,0.04,,,0.10,62,Wunderground v.1.15,2013-04-28 15:34:00,
2013-04-28 11:39:00,51.4,50.0,29.80,North,32767,0.0,0.0,95,0.04,,,0.10,42,Wunderground v.1.15,2013-04-28 15:39:00,
2013-04-28 11:45:00,51.4,50.0,29.81,North,32767,0.0,0.0,95,0.04,,,0.10,51,Wunderground v.1.15,2013-04-28 15:45:00,
2013-04-28 11:50:00,51.5,50.1,29.80,North,32767,0.0,0.0,95,0.00,,,0.10,60,Wunderground v.1.15,2013-04-28 15:50:00,
2013-04-28 11:55:00,51.6,50.2,29.80,North,32767,0.0,0.0,95,0.00,,,0.11,67,Wunderground v.1.15,2013-04-28 15:55:00,
2013-04-28 12:00:00,51.6,50.2,29.80,North,32767,0.0,0.0,95,0.00,,,0.11,65,Wunderground v.1.15,2013-04-28 16:00:00,
2013-04-28 12:05:00,51.7,50.3,29.80,North,32767,0.0,0.0,95,0.00,,,0.11,54,Wunderground v.1.15,2013-04-28 16:05:00,
2013-04-28 12:10:00,51.7,50.3,29.80,North,32767,0.0,0.0,95,0.04,,,0.12,69,Wunderground v.1.15,2013-04-28 16:10:00,
2013-04-28 12:15:00,51.7,50.3,29.80,North,32767,0.0,0.0,95,0.04,,,0.12,62,Wunderground v.1.15,2013-04-28 16:15:00,
2013-04-28 12:20:00,51.7,50.3,29.80,North,32767,0.0,0.0,95,0.04,,,0.12,74,Wunderground v.1.15,2013-04-28 16:20:00,
2013-04-28 12:25:00,51.7,50.3,29.80,North,32767,0.0,0.0,95,0.04,,,0.12,74,Wunderground v.1.15,2013-04-28 16:25:00,
2013-04-28 12:30:00,51.7,50.3,29.79,North,32767,0.0,0.0,95,0.00,,,0.12,70,Wunderground v.1.15,2013-04-28 16:30:00,
2013-04-28 12:35:00,51.7,50.3,29.79,North,32767,0.0,0.0,95,0.00,,,0.12,63,Wunderground v.1.15,2013-04-28 16:35:00,
2013-04-28 12:40:00,51.8,50.4,29.80,North,32767,0.0,0.0,95,0.00,,,0.12,51,Wunderground v.1.15,2013-04-28 16:40:00,
2013-04-28 12:45:00,51.7,50.3,29.79,North,32767,0.0,0.0,95,0.00,,,0.12,54,Wunderground v.1.15,2013-04-28 16:45:00,
2013-04-28 12:50:00,51.7,50.3,29.79,North,32767,0.0,0.0,95,0.00,,,0.12,51,Wunderground v.1.15,2013-04-28 16:50:00,
2013-04-28 12:55:00,51.6,50.2,29.79,North,32767,0.0,0.0,95,0.00,,,0.12,40,Wunderground v.1.15,2013-04-28 16:55:00,
2013-04-28 13:00:00,51.6,50.2,29.78,North,32767,0.0,0.0,95,0.00,,,0.12,44,Wunderground v.1.15,2013-04-28 17:00:00,
2013-04-28 13:05:00,51.6,50.2,29.78,North,32767,0.0,0.0,95,0.00,,,0.12,56,Wunderground v.1.15,2013-04-28 17:05:00,
2013-04-28 13:10:00,51.6,50.5,29.78,North,32767,0.0,0.0,96,0.00,,,0.12,67,Wunderground v.1.15,2013-04-28 17:10:00,
2013-04-28 13:15:00,51.7,50.6,29.78,North,32767,0.0,0.0,96,0.00,,,0.12,69,Wunderground v.1.15,2013-04-28 17:15:00,
2013-04-28 13:20:00,51.7,50.6,29.78,North,32767,0.0,0.0,96,0.00,,,0.12,88,Wunderground v.1.15,2013-04-28 17:20:00,
2013-04-28 13:25:00,51.7,50.6,29.78,North,32767,0.0,0.0,96,0.00,,,0.12,84,Wunderground v.1.15,2013-04-28 17:25:00,
2013-04-28 13:30:00,51.8,50.7,29.78,North,32767,0.0,0.0,96,0.00,,,0.12,70,Wunderground v.1.15,2013-04-28 17:30:00,
2013-04-28 13:35:00,51.8,50.7,29.77,North,32767,0.0,0.0,96,0.00,,,0.12,76,Wunderground v.1.15,2013-04-28 17:35:00,
2013-04-28 13:40:00,51.8,50.7,29.77,North,32767,0.0,0.0,96,0.00,,,0.12,65,Wunderground v.1.15,2013-04-28 17:40:00,
2013-04-28 13:45:00,51.9,50.8,29.77,North,32767,0.0,0.0,96,0.00,,,0.12,63,Wunderground v.1.15,2013-04-28 17:45:00,
2013-04-28 13:50:00,51.8,50.7,29.77,North,32767,0.0,0.0,96,0.00,,,0.12,46,Wunderground v.1.15,2013-04-28 17:50:00,
2013-04-28 13:55:00,51.8,50.7,29.77,North,32767,0.0,0.0,96,0.00,,,0.12,44,Wunderground v.1.15,2013-04-28 17:55:00,
2013-04-28 14:00:00,51.8,50.7,29.77,North,32767,0.0,0.0,96,0.00,,,0.12,37,Wunderground v.1.15,2013-04-28 18:00:00,
2013-04-28 14:05:00,51.8,50.7,29.77,North,32767,0.0,0.0,96,0.00,,,0.12,39,Wunderground v.1.15,2013-04-28 18:05:00,
2013-04-28 14:10:00,51.8,50.7,29.77,North,32767,0.0,0.0,96,0.00,,,0.12,37,Wunderground v.1.15,2013-04-28 18:10:00,
2013-04-28 14:15:00,51.7,50.6,29.77,North,32767,0.0,0.0,96,0.00,,,0.12,37,Wunderground v.1.15,2013-04-28 18:15:00,
2013-04-28 14:20:00,51.8,50.7,29.77,North,32767,0.0,0.0,96,0.00,,,0.12,44,Wunderground v.1.15,2013-04-28 18:20:00,
2013-04-28 14:25:00,51.8,50.7,29.77,North,32767,0.0,0.0,96,0.00,,,0.12,49,Wunderground v.1.15,2013-04-28 18:25:00,
2013-04-28 14:30:00,51.8,50.7,29.77,North,32767,0.0,0.0,96,0.00,,,0.13,49,Wunderground v.1.15,2013-04-28 18:30:00,
2013-04-28 14:35:00,51.8,50.7,29.76,North,32767,0.0,0.0,96,0.00,,,0.13,56,Wunderground v.1.15,2013-04-28 18:35:00,
2013-04-28 14:40:00,51.9,51.1,29.76,North,32767,0.0,0.0,97,0.08,,,0.14,60,Wunderground v.1.15,2013-04-28 18:40:00,
2013-04-28 14:45:00,52.1,51.3,29.76,North,32767,0.0,0.0,97,0.07,,,0.14,65,Wunderground v.1.15,2013-04-28 18:45:00,
2013-04-28 14:50:00,52.1,51.3,29.76,North,32767,0.0,0.0,97,0.04,,,0.14,60,Wunderground v.1.15,2013-04-28 18:50:00,
2013-04-28 14:55:00,52.1,51.3,29.76,North,32767,0.0,0.0,97,0.04,,,0.15,49,Wunderground v.1.15,2013-04-28 18:55:00,
2013-04-28 15:00:00,52.2,51.4,29.76,North,32767,0.0,0.0,97,0.04,,,0.15,65,Wunderground v.1.15,2013-04-28 19:00:00,
2013-04-28 15:05:00,52.2,51.4,29.76,North,32767,0.0,0.0,97,0.05,,,0.16,60,Wunderground v.1.15,2013-04-28 19:05:00,
2013-04-28 15:10:00,52.3,51.5,29.76,North,32767,0.0,0.0,97,0.05,,,0.16,62,Wunderground v.1.15,2013-04-28 19:10:00,
2013-04-28 15:15:00,52.3,51.2,29.76,North,32767,0.0,0.0,96,0.05,,,0.16,44,Wunderground v.1.15,2013-04-28 19:15:00,
2013-04-28 15:20:00,52.3,51.5,29.75,North,32767,0.0,0.0,97,0.04,,,0.16,44,Wunderground v.1.15,2013-04-28 19:20:00,
2013-04-28 15:25:00,52.4,51.6,29.75,North,32767,0.0,0.0,97,0.00,,,0.16,37,Wunderground v.1.15,2013-04-28 19:25:00,
2013-04-28 15:30:00,52.4,51.6,29.75,North,32767,0.0,0.0,97,0.00,,,0.16,32,Wunderground v.1.15,2013-04-28 19:30:00,
2013-04-28 15:35:00,52.4,51.6,29.75,North,32767,0.0,0.0,97,0.00,,,0.16,21,Wunderground v.1.15,2013-04-28 19:35:00,
2013-04-28 15:40:00,52.4,51.6,29.75,North,32767,0.0,0.0,97,0.00,,,0.16,19,Wunderground v.1.15,2013-04-28 19:40:00,
2013-04-28 15:45:00,52.4,51.6,29.75,North,32767,0.0,0.0,97,0.00,,,0.16,26,Wunderground v.1.15,2013-04-28 19:45:00,
2013-04-28 15:50:00,52.4,51.6,29.74,North,32767,0.0,0.0,97,0.00,,,0.17,39,Wunderground v.1.15,2013-04-28 19:50:00,
2013-04-28 15:55:00,52.4,51.6,29.74,North,32767,0.0,0.0,97,0.10,,,0.18,37,Wunderground v.1.15,2013-04-28 19:55:00,
2013-04-28 16:00:00,52.5,51.7,29.74,North,32767,0.0,0.0,97,0.08,,,0.18,42,Wunderground v.1.15,2013-04-28 20:00:00,
2013-04-28 16:05:00,52.5,51.7,29.74,North,32767,0.0,0.0,97,0.05,,,0.18,60,Wunderground v.1.15,2013-04-28 20:05:00,
2013-04-28 16:10:00,52.6,51.8,29.74,North,32767,0.0,0.0,97,0.05,,,0.19,39,Wunderground v.1.15,2013-04-28 20:10:00,
2013-04-28 16:15:00,52.6,51.8,29.74,North,32767,0.0,0.0,97,0.09,,,0.20,35,Wunderground v.1.15,2013-04-28 20:15:00,
2013-04-28 16:20:00,52.7,51.9,29.74,North,32767,0.0,0.0,97,0.07,,,0.20,28,Wunderground v.1.15,2013-04-28 20:20:00,
2013-04-28 16:25:00,52.7,51.9,29.73,North,32767,0.0,0.0,97,0.05,,,0.20,28,Wunderground v.1.15,2013-04-28 20:25:00,
2013-04-28 16:30:00,52.7,51.9,29.73,North,32767,0.0,0.0,97,0.00,,,0.20,28,Wunderground v.1.15,2013-04-28 20:30:00,
2013-04-28 16:35:00,52.8,52.0,29.73,North,32767,0.0,0.0,97,0.00,,,0.21,26,Wunderground v.1.15,2013-04-28 20:35:00,
2013-04-28 16:40:00,52.8,52.0,29.73,North,32767,0.0,0.0,97,0.00,,,0.21,18,Wunderground v.1.15,2013-04-28 20:40:00,
2013-04-28 16:45:00,52.8,52.0,29.73,North,32767,0.0,0.0,97,0.00,,,0.21,18,Wunderground v.1.15,2013-04-28 20:45:00,
2013-04-28 16:51:00,52.8,52.0,29.73,North,32767,0.0,0.0,97,0.00,,,0.21,18,Wunderground v.1.15,2013-04-28 20:51:00,
2013-04-28 16:56:00,52.8,52.0,29.73,North,32767,0.0,0.0,97,0.00,,,0.21,12,Wunderground v.1.15,2013-04-28 20:56:00,
2013-04-28 17:01:00,52.8,52.0,29.73,North,32767,0.0,0.0,97,0.00,,,0.21,18,Wunderground v.1.15,2013-04-28 21:01:00,
2013-04-28 17:06:00,52.8,52.0,29.73,North,32767,0.0,0.0,97,0.00,,,0.22,19,Wunderground v.1.15,2013-04-28 21:06:00,
2013-04-28 17:11:00,52.9,52.1,29.73,North,32767,0.0,0.0,97,0.00,,,0.22,19,Wunderground v.1.15,2013-04-28 21:11:00,
2013-04-28 17:16:00,52.9,52.1,29.72,North,32767,0.0,0.0,97,0.00,,,0.22,21,Wunderground v.1.15,2013-04-28 21:16:00,
2013-04-28 17:21:00,52.9,52.1,29.73,North,32767,0.0,0.0,97,0.00,,,0.22,23,Wunderground v.1.15,2013-04-28 21:21:00,
2013-04-28 17:26:00,53.0,52.2,29.73,North,32767,0.0,0.0,97,0.00,,,0.22,23,Wunderground v.1.15,2013-04-28 21:26:00,
2013-04-28 17:31:00,53.0,52.2,29.73,North,32767,0.0,0.0,97,0.00,,,0.23,19,Wunderground v.1.15,2013-04-28 21:31:00,
2013-04-28 17:36:00,53.0,52.2,29.72,North,32767,0.0,0.0,97,0.00,,,0.23,26,Wunderground v.1.15,2013-04-28 21:36:00,
2013-04-28 17:41:00,53.0,52.2,29.72,North,32767,0.0,0.0,97,0.00,,,0.23,33,Wunderground v.1.15,2013-04-28 21:41:00,
2013-04-28 17:46:00,53.0,52.2,29.72,North,32767,0.0,0.0,97,0.00,,,0.23,37,Wunderground v.1.15,2013-04-28 21:46:00,
2013-04-28 17:51:00,53.1,52.3,29.72,North,32767,0.0,0.0,97,0.00,,,0.23,33,Wunderground v.1.15,2013-04-28 21:51:00,
2013-04-28 17:56:00,53.1,52.3,29.72,North,32767,0.0,0.0,97,0.00,,,0.23,30,Wunderground v.1.15,2013-04-28 21:56:00,
2013-04-28 18:01:00,53.2,52.4,29.72,North,32767,0.0,0.0,97,0.00,,,0.23,26,Wunderground v.1.15,2013-04-28 22:01:00,
2013-04-28 18:06:00,53.2,52.4,29.72,North,32767,0.0,0.0,97,0.00,,,0.23,26,Wunderground v.1.15,2013-04-28 22:06:00,
2013-04-28 18:11:00,53.3,52.5,29.72,North,32767,0.0,0.0,97,0.00,,,0.23,30,Wunderground v.1.15,2013-04-28 22:11:00,
2013-04-28 18:16:00,53.3,52.5,29.72,North,32767,0.0,0.0,97,0.00,,,0.23,30,Wunderground v.1.15,2013-04-28 22:16:00,
2013-04-28 18:21:00,53.3,52.8,29.72,North,32767,0.0,0.0,98,0.00,,,0.23,32,Wunderground v.1.15,2013-04-28 22:21:00,
2013-04-28 18:26:00,53.4,52.8,29.72,North,32767,0.0,0.0,98,0.00,,,0.23,32,Wunderground v.1.15,2013-04-28 22:26:00,
2013-04-28 18:31:00,53.4,52.8,29.72,North,32767,0.0,0.0,98,0.00,,,0.23,26,Wunderground v.1.15,2013-04-28 22:31:00,
2013-04-28 18:36:00,53.4,52.8,29.72,North,32767,0.0,0.0,98,0.00,,,0.23,21,Wunderground v.1.15,2013-04-28 22:36:00,
2013-04-28 18:41:00,53.4,52.6,29.72,North,32767,0.0,0.0,97,0.00,,,0.24,18,Wunderground v.1.15,2013-04-28 22:41:00,
2013-04-28 18:46:00,53.4,52.6,29.72,North,32767,0.0,0.0,97,0.00,,,0.24,16,Wunderground v.1.15,2013-04-28 22:46:00,
2013-04-28 18:51:00,53.4,52.6,29.72,North,32767,0.0,0.0,97,0.00,,,0.24,16,Wunderground v.1.15,2013-04-28 22:51:00,
2013-04-28 18:56:00,53.4,52.6,29.72,North,32767,0.0,0.0,97,0.00,,,0.24,19,Wunderground v.1.15,2013-04-28 22:56:00,
2013-04-28 19:01:00,53.4,52.6,29.71,North,32767,0.0,0.0,97,0.00,,,0.24,11,Wunderground v.1.15,2013-04-28 23:01:00,
2013-04-28 19:06:00,53.3,52.5,29.71,North,32767,0.0,0.0,97,0.00,,,0.24,7,Wunderground v.1.15,2013-04-28 23:06:00,
2013-04-28 19:11:00,53.3,52.5,29.71,North,32767,0.0,0.0,97,0.00,,,0.24,5,Wunderground v.1.15,2013-04-28 23:11:00,
2013-04-28 19:16:00,53.3,52.5,29.71,North,32767,0.0,0.0,97,0.00,,,0.24,7,Wunderground v.1.15,2013-04-28 23:16:00,
2013-04-28 19:21:00,53.3,52.5,29.71,North,32767,0.0,0.0,97,0.00,,,0.24,7,Wunderground v.1.15,2013-04-28 23:21:00,
2013-04-28 19:26:00,53.2,52.4,29.71,North,32767,0.0,0.0,97,0.00,,,0.24,7,Wunderground v.1.15,2013-04-28 23:26:00,
2013-04-28 19:31:00,53.2,52.4,29.71,North,32767,0.0,0.0,97,0.00,,,0.24,5,Wunderground v.1.15,2013-04-28 23:31:00,
2013-04-28 19:36:00,53.2,52.4,29.71,North,32767,0.0,0.0,97,0.00,,,0.24,5,Wunderground v.1.15,2013-04-28 23:36:00,
2013-04-28 19:41:00,53.2,52.4,29.71,North,32767,0.0,0.0,97,0.00,,,0.24,0,Wunderground v.1.15,2013-04-28 23:41:00,
2013-04-28 19:46:00,53.2,52.4,29.71,North,32767,0.0,0.0,97,0.00,,,0.24,5,Wunderground v.1.15,2013-04-28 23:46:00,
2013-04-28 19:51:00,53.2,52.4,29.71,North,32767,0.0,0.0,97,0.00,,,0.24,0,Wunderground v.1.15,2013-04-28 23:51:00,
2013-04-28 19:56:00,53.3,52.5,29.71,North,32767,0.0,0.0,97,0.00,,,0.24,0,Wunderground v.1.15,2013-04-28 23:56:00,
2013-04-28 20:01:00,53.2,52.4,29.71,North,32767,0.0,0.0,97,0.00,,,0.24,0,Wunderground v.1.15,2013-04-29 00:01:00,
2013-04-28 20:06:00,53.3,52.5,29.71,North,32767,0.0,0.0,97,0.00,,,0.24,0,Wunderground v.1.15,2013-04-29 00:06:00,
2013-04-28 20:11:00,53.3,52.5,29.71,North,32767,0.0,0.0,97,0.00,,,0.24,5,Wunderground v.1.15,2013-04-29 00:11:00,
2013-04-28 20:16:00,53.3,52.8,29.71,North,32767,0.0,0.0,98,0.00,,,0.24,0,Wunderground v.1.15,2013-04-29 00:16:00,
2013-04-28 20:21:00,53.3,52.8,29.71,North,32767,0.0,0.0,98,0.00,,,0.24,0,Wunderground v.1.15,2013-04-29 00:21:00,
2013-04-28 20:26:00,53.3,52.8,29.71,North,32767,0.0,0.0,98,0.00,,,0.24,0,Wunderground v.1.15,2013-04-29 00:26:00,
2013-04-28 20:31:00,53.3,52.8,29.71,North,32767,0.0,0.0,98,0.00,,,0.24,0,Wunderground v.1.15,2013-04-29 00:31:00,
2013-04-28 20:36:00,53.4,52.8,29.71,North,32767,0.0,0.0,98,0.00,,,0.24,0,Wunderground v.1.15,2013-04-29 00:36:00,
2013-04-28 20:41:00,53.4,52.8,29.71,North,32767,0.0,0.0,98,0.00,,,0.24,0,Wunderground v.1.15,2013-04-29 00:41:00,
2013-04-28 20:46:00,53.5,52.9,29.71,North,32767,0.0,0.0,98,0.00,,,0.24,0,Wunderground v.1.15,2013-04-29 00:46:00,
2013-04-28 20:51:00,53.5,52.9,29.71,North,32767,0.0,0.0,98,0.00,,,0.24,0,Wunderground v.1.15,2013-04-29 00:51:00,
2013-04-28 20:56:00,53.5,52.9,29.71,North,32767,0.0,0.0,98,0.00,,,0.24,0,Wunderground v.1.15,2013-04-29 00:56:00,
2013-04-28 21:01:00,53.5,52.9,29.72,North,32767,0.0,0.0,98,0.00,,,0.24,0,Wunderground v.1.15,2013-04-29 01:01:00,
2013-04-28 21:06:00,53.5,52.9,29.72,North,32767,0.0,0.0,98,0.00,,,0.24,0,Wunderground v.1.15,2013-04-29 01:06:00,
2013-04-28 21:11:00,53.5,52.9,29.72,North,32767,0.0,0.0,98,0.00,,,0.24,0,Wunderground v.1.15,2013-04-29 01:11:00,
2013-04-28 21:16:00,53.5,52.9,29.72,North,32767,0.0,0.0,98,0.00,,,0.24,0,Wunderground v.1.15,2013-04-29 01:16:00,
2013-04-28 21:21:00,53.5,52.9,29.72,North,32767,0.0,0.0,98,0.00,,,0.24,0,Wunderground v.1.15,2013-04-29 01:21:00,
2013-04-28 21:26:00,53.5,52.9,29.73,North,32767,0.0,0.0,98,0.00,,,0.24,0,Wunderground v.1.15,2013-04-29 01:26:00,
2013-04-28 21:31:00,53.5,52.9,29.72,North,32767,0.0,0.0,98,0.00,,,0.25,0,Wunderground v.1.15,2013-04-29 01:31:00,
2013-04-28 21:36:00,53.5,52.9,29.72,North,32767,0.0,0.0,98,0.00,,,0.25,0,Wunderground v.1.15,2013-04-29 01:36:00,
2013-04-28 21:41:00,53.5,52.9,29.72,North,32767,0.0,0.0,98,0.00,,,0.25,0,Wunderground v.1.15,2013-04-29 01:41:00,
2013-04-28 21:46:00,53.5,52.9,29.73,North,32767,0.0,0.0,98,0.00,,,0.25,0,Wunderground v.1.15,2013-04-29 01:46:00,
2013-04-28 21:51:00,53.5,52.9,29.73,North,32767,0.0,0.0,98,0.00,,,0.25,0,Wunderground v.1.15,2013-04-29 01:51:00,
2013-04-28 21:56:00,53.5,52.9,29.72,North,32767,0.0,0.0,98,0.00,,,0.25,0,Wunderground v.1.15,2013-04-29 01:56:00,
2013-04-28 22:01:00,53.5,52.9,29.72,North,32767,0.0,0.0,98,0.00,,,0.25,0,Wunderground v.1.15,2013-04-29 02:01:00,
2013-04-28 22:06:00,53.5,52.9,29.72,North,32767,0.0,0.0,98,0.00,,,0.25,0,Wunderground v.1.15,2013-04-29 02:06:00,
2013-04-28 22:11:00,53.5,52.9,29.73,North,32767,0.0,0.0,98,0.00,,,0.25,0,Wunderground v.1.15,2013-04-29 02:11:00,
2013-04-28 22:16:00,53.5,52.9,29.73,North,32767,0.0,0.0,98,0.00,,,0.25,0,Wunderground v.1.15,2013-04-29 02:16:00,
2013-04-28 22:21:00,53.5,52.9,29.73,North,32767,0.0,0.0,98,0.00,,,0.25,0,Wunderground v.1.15,2013-04-29 02:21:00,
2013-04-28 22:26:00,53.5,52.9,29.73,North,32767,0.0,0.0,98,0.00,,,0.25,0,Wunderground v.1.15,2013-04-29 02:26:00,
2013-04-28 22:31:00,53.5,52.9,29.73,North,32767,0.0,0.0,98,0.00,,,0.25,0,Wunderground v.1.15,2013-04-29 02:31:00,
2013-04-28 22:36:00,53.4,52.8,29.73,North,32767,0.0,0.0,98,0.00,,,0.25,0,Wunderground v.1.15,2013-04-29 02:36:00,
2013-04-28 22:41:00,53.4,52.8,29.73,North,32767,0.0,0.0,98,0.00,,,0.25,0,Wunderground v.1.15,2013-04-29 02:41:00,
2013-04-28 22:46:00,53.4,52.8,29.73,North,32767,0.0,0.0,98,0.00,,,0.25,0,Wunderground v.1.15,2013-04-29 02:46:00,
2013-04-28 22:51:00,53.4,52.8,29.72,North,32767,0.0,0.0,98,0.00,,,0.25,0,Wunderground v.1.15,2013-04-29 02:51:00,
2013-04-28 22:56:00,53.4,52.8,29.72,North,32767,0.0,0.0,98,0.00,,,0.25,0,Wunderground v.1.15,2013-04-29 02:56:00,
2013-04-28 23:01:00,53.3,52.8,29.72,North,32767,0.0,0.0,98,0.00,,,0.25,0,Wunderground v.1.15,2013-04-29 03:01:00,
2013-04-28 23:06:00,53.4,52.8,29.72,North,32767,0.0,0.0,98,0.00,,,0.25,0,Wunderground v.1.15,2013-04-29 03:06:00,
2013-04-28 23:11:00,53.4,52.8,29.72,North,32767,0.0,0.0,98,0.00,,,0.25,0,Wunderground v.1.15,2013-04-29 03:11:00,
2013-04-28 23:16:00,53.3,52.8,29.72,North,32767,0.0,0.0,98,0.00,,,0.25,0,Wunderground v.1.15,2013-04-29 03:16:00,
2013-04-28 23:21:00,53.3,52.8,29.72,North,32767,0.0,0.0,98,0.00,,,0.25,0,Wunderground v.1.15,2013-04-29 03:21:00,
2013-04-28 23:26:00,53.3,52.8,29.72,North,32767,0.0,0.0,98,0.00,,,0.25,0,Wunderground v.1.15,2013-04-29 03:26:00,
2013-04-28 23:31:00,53.2,52.7,29.71,North,32767,0.0,0.0,98,0.00,,,0.25,0,Wunderground v.1.15,2013-04-29 03:31:00,
2013-04-28 23:36:00,53.3,52.8,29.71,North,32767,0.0,0.0,98,0.00,,,0.25,0,Wunderground v.1.15,2013-04-29 03:36:00,
2013-04-28 23:41:00,53.3,52.8,29.71,North,32767,0.0,0.0,98,0.00,,,0.25,0,Wunderground v.1.15,2013-04-29 03:41:00,
2013-04-28 23:47:00,53.3,52.8,29.71,North,32767,0.0,0.0,98,0.00,,,0.25,0,Wunderground v.1.15,2013-04-29 03:47:00,
2013-04-28 23:52:00,53.3,52.8,29.71,North,32767,0.0,0.0,98,0.00,,,0.25,0,Wunderground v.1.15,2013-04-29 03:52:00,
2013-04-28 23:57:00,53.2,52.7,29.71,North,32767,0.0,0.0,98,0.00,,,0.25,0,Wunderground v.1.15,2013-04-29 03:57:00,